Temp
19 18 18 18 19 19 19 19 18 18 19 19 18 18 18 18 18 18 19 18 18 19
18 18 18 19 19 19 19 18 19 19 18 17 17 18 19 18 18 18 18 19 19 19
19 19 19 19 19 19 18 19 19 19 19 18 17 18 18 18 18 18 18 18 18 19
19 19 19 20 19 19 19 19 19 19 19 19 19 19 18 18 18 18 18 18 18 18
19 20 19 19 19 19 19 19 19 19 19 19 19 19 19 19 18 18 18 18 18 18
20 20 19 19 18 18 18 19 18 19 19 19 18 18 19 19 18 18 18 18 18 18
20 20 19 19 18 19 18 18 18 18 17 17 18 18 18 18 17 18 18 18 18 18
21 19 19 19 19 19 18 18 17 17 17 17 17 17 17 17 17 17 17 17 17 17
20 19 19 19 20 20 19 18 17 17 17 17 17 17 17 17 17 17 17 16 16 16
20 20 20 20 20 20 19 19 18 18 17 17 17 17 18 18 17 16 16 16 16 16
20 20 20 20 21 20 20 20 19 19 19 18 17 18 17 17 16 16 15 15 15 15
20 20 20 19 20 19 18 18 18 19 19 18 17 17 17 17 16 15 14 14 15 15
21 21 20 19 19 17 16 17 16 15 18 17 16 16 16 16 15 15 14 14 14 14
21 20 19 18 17 16 17 16 14 15 15 16 15 15 15 15 16 15 14 14 14 14
Height
1517 1521 1524 1525 1527 1529 1529 1530 1530 1533 1531 1532 1533 1534 1536 1539 1542 1544 1547 1549 1550 1551
1517 1521 1523 1523 1522 1525 1529 1530 1533 1531 1530 1520 1531 1533 1534 1536 1539 1542 1544 1546 1548 1549
1515 1519 1520 1523 1523 1527 1528 1531 1531 1530 1529 1527 1526 1530 1533 1534 1537 1539 1542 1544 1546 1547
1513 1516 1518 1521 1523 1525 1528 1529 1529 1530 1529 1529 1529 1528 1531 1532 1535 1538 1539 1541 1543 1544
1513 1514 1517 1519 1522 1525 1526 1527 1527 1527 1528 1529 1530 1530 1530 1531 1534 1536 1537 1539 1541 1542
1512 1514 1517 1521 1522 1523 1525 1525 1526 1526 1527 1529 1530 1530 1530 1531 1533 1535 1536 1538 1539 1540
1511 1513 1515 1518 1520 1522 1524 1525 1527 1527 1527 1528 1530 1530 1531 1531 1533 1535 1536 1536 1537 1537
1509 1512 1514 1517 1519 1521 1523 1524 1526 1527 1526 1528 1529 1530 1532 1532 1534 1535 1536 1535 1535 1536
1507 1510 1512 1514 1516 1519 1521 1523 1525 1524 1525 1526 1527 1529 1531 1531 1532 1532 1534 1534 1533 1533
1504 1508 1510 1512 1514 1516 1518 1521 1522 1521 1523 1524 1525 1526 1527 1528 1529 1530 1532 1532 1531 1530
1503 1506 1508 1510 1513 1514 1516 1518 1520 1520 1521 1523 1523 1524 1525 1525 1526 1527 1529 1529 1529 1529
1502 1505 1507 1508 1510 1512 1514 1515 1517 1518 1518 1521 1523 1523 1523 1523 1523 1524 1526 1526 1526 1526
1496 1498 1504 1505 1507 1510 1513 1514 1515 1516 1514 1519 1521 1521 1520 1521 1521 1521 1522 1523 1524 1524
1495 1495 1497 1501 1504 1507 1510 1510 1511 1513 1514 1517 1518 1518 1519 1519 1519 1520 1518 1520 1521 1522
Wind_Speed
20 17 17 13 8 10 12 12 11 10 10 7 12 13 19 21 18 15 20 16 11 9
14 14 15 14 12 13 11 7 8 9 10 4 9 11 13 17 15 16 15 18 16 13
8 12 14 12 12 8 6 9 5 8 2 5 3 8 9 11 12 16 14 14 12 12
9 13 10 14 10 8 6 6 5 5 2 1 5 5 4 6 9 12 12 12 12 12
12 11 9 7 8 8 6 5 4 3 3 4 4 4 3 3 6 8 11 14 17 16
11 10 9 11 11 8 7 5 3 4 5 4 5 5 6 4 5 5 7 9 13 14
9 11 12 14 10 5 12 10 8 5 7 7 5 7 9 10 7 5 4 3 6 10
12 14 15 13 9 8 11 10 8 8 11 10 8 7 8 7 7 5 4 3 2 3
20 22 19 15 12 11 10 10 10 10 9 9 9 10 12 12 11 9 8 11 9 12
20 26 21 16 14 12 10 10 10 9 8 8 8 8 9 12 14 9 8 10 11 14
25 24 22 18 15 14 12 10 9 10 9 8 8 8 9 12 15 13 11 12 13 15
23 22 21 18 17 15 13 11 9 9 9 8 7 6 8 10 14 13 7 9 10 7
25 18 24 17 16 14 11 9 12 11 18 10 8 7 8 12 12 10 6 6 7 8
26 25 27 21 19 16 12 14 14 12 8 4 3 2 4 8 14 11 10 10 8 8
Wind_Direction
177 197 215 233 226 227 247 256 271 277 264 237 211 210 201 203 209 203 209 212 215 223
193 205 207 194 201 220 219 242 263 266 255 254 220 205 200 205 210 215 207 217 225 231
195 194 203 194 188 181 167 215 218 262 27 138 92 201 179 199 203 216 219 214 213 224
179 198 196 166 177 185 208 215 222 231 225 99 145 167 148 185 201 215 216 208 219 224
177 184 177 168 196 191 177 135 131 152 159 176 179 155 141 192 214 213 219 219 230 235
185 172 179 176 176 170 153 147 146 120 127 152 142 159 164 181 206 211 224 225 231 237
183 175 175 168 167 192 181 174 196 161 139 147 144 140 134 130 129 130 139 168 214 236
186 168 172 173 194 174 172 175 168 169 193 182 178 186 173 162 159 213 187 165 213 208
180 193 189 199 211 201 187 188 181 198 204 202 201 207 214 210 212 224 221 220 216 243
185 188 200 218 221 206 197 193 189 209 220 232 234 234 221 203 203 187 211 212 233 247
198 205 215 222 219 201 197 198 203 225 242 258 265 240 209 194 190 208 227 246 248 250
207 218 226 217 210 202 204 202 204 228 248 253 254 212 201 192 196 201 235 265 272 282
209 207 233 218 215 207 203 205 212 234 265 250 254 224 194 192 189 198 216 248 269 307
221 217 222 216 210 208 218 204 210 223 234 261 252 236 231 214 203 204 218 212 243 265